Year,Month,Day,Hour,Minute,Value (Times are PST for temperature in C)
2009,10,14,12,00,14.40
2009,10,14,12,01,14.50
2009,10,14,12,02,14.50
2009,10,14,12,03,14.60
2009,10,14,12,04,14.60
2009,10,14,12,05,14.60
2009,10,14,12,06,14.60
2009,10,14,12,07,14.60
2009,10,14,12,08,14.60
2009,10,14,12,09,14.60
2009,10,14,12,10,14.70
2009,10,14,12,11,14.70
2009,10,14,12,12,14.70
2009,10,14,12,13,14.70
2009,10,14,12,14,14.80
2009,10,14,12,15,14.80
2009,10,14,12,16,14.90
2009,10,14,12,17,14.90
2009,10,14,12,18,14.90
2009,10,14,12,19,14.90
2009,10,14,12,20,15.00
2009,10,14,12,21,15.00
2009,10,14,12,22,15.00
2009,10,14,12,23,15.00
2009,10,14,12,24,15.00
2009,10,14,12,25,15.00
2009,10,14,12,26,15.00
2009,10,14,12,27,15.00
2009,10,14,12,28,15.00
2009,10,14,12,29,15.00
2009,10,14,12,30,15.00
2009,10,14,12,31,15.00
2009,10,14,12,32,15.00
2009,10,14,12,33,15.00
2009,10,14,12,34,15.00
2009,10,14,12,35,15.00
2009,10,14,12,36,15.00
2009,10,14,12,37,15.10
2009,10,14,12,38,15.20
2009,10,14,12,39,15.30
2009,10,14,12,40,15.30
2009,10,14,12,41,15.30
2009,10,14,12,42,15.40
2009,10,14,12,43,15.40
2009,10,14,12,44,15.40
2009,10,14,12,45,15.50
2009,10,14,12,46,15.60
2009,10,14,12,47,15.60
2009,10,14,12,48,15.70
2009,10,14,12,49,15.70
2009,10,14,12,50,15.70
2009,10,14,12,51,15.70
2009,10,14,12,52,15.70
2009,10,14,12,53,15.80
2009,10,14,12,54,15.80
2009,10,14,12,55,15.80
2009,10,14,12,56,15.90
2009,10,14,12,57,15.90
2009,10,14,12,58,15.90
2009,10,14,12,59,15.90
2009,10,14,13,00,16.00
2009,10,14,13,01,16.00
2009,10,14,13,02,16.00
2009,10,14,13,03,16.00
2009,10,14,13,04,16.00
2009,10,14,13,05,16.00
2009,10,14,13,06,16.00
2009,10,14,13,07,16.00
2009,10,14,13,08,16.00
2009,10,14,13,09,16.00
2009,10,14,13,10,16.00
2009,10,14,13,11,16.00
2009,10,14,13,12,15.90
2009,10,14,13,13,15.90
2009,10,14,13,14,15.90
2009,10,14,13,15,15.90
2009,10,14,13,16,15.80
2009,10,14,13,17,15.80
2009,10,14,13,18,15.80
2009,10,14,13,19,15.80
2009,10,14,13,20,15.80
2009,10,14,13,21,15.80
2009,10,14,13,22,15.70
2009,10,14,13,23,15.70
2009,10,14,13,24,15.70
2009,10,14,13,25,15.70
2009,10,14,13,26,15.60
2009,10,14,13,27,15.60
2009,10,14,13,28,15.60
2009,10,14,13,29,15.60
2009,10,14,13,30,15.60
2009,10,14,13,31,15.50
2009,10,14,13,32,15.50
2009,10,14,13,33,15.50
2009,10,14,13,34,15.50
2009,10,14,13,35,15.40
2009,10,14,13,36,15.40
2009,10,14,13,37,15.40
2009,10,14,13,38,15.40
2009,10,14,13,39,15.50
2009,10,14,13,40,15.50
2009,10,14,13,41,15.50
2009,10,14,13,42,15.40
2009,10,14,13,43,15.30
2009,10,14,13,44,15.30
2009,10,14,13,45,15.30
2009,10,14,13,46,15.30
2009,10,14,13,47,15.20
2009,10,14,13,48,15.20
2009,10,14,13,49,15.20
2009,10,14,13,50,15.20
2009,10,14,13,51,15.20
2009,10,14,13,52,15.20
2009,10,14,13,53,15.20
2009,10,14,13,54,15.20
2009,10,14,13,55,15.20
2009,10,14,13,56,15.20
2009,10,14,13,57,15.10
2009,10,14,13,58,15.10
2009,10,14,13,59,15.00
2009,10,14,14,00,15.00
2009,10,14,14,01,15.00
2009,10,14,14,02,15.00
2009,10,14,14,03,15.00
2009,10,14,14,04,15.00
2009,10,14,14,05,15.00
2009,10,14,14,06,15.00
2009,10,14,14,07,15.00
2009,10,14,14,08,15.00
2009,10,14,14,09,15.00
2009,10,14,14,10,15.00
2009,10,14,14,11,15.00
2009,10,14,14,12,15.00
2009,10,14,14,13,15.00
2009,10,14,14,14,15.00
2009,10,14,14,15,15.00
2009,10,14,14,16,15.00
2009,10,14,14,17,15.00
2009,10,14,14,18,15.00
2009,10,14,14,19,15.00
2009,10,14,14,20,15.00
2009,10,14,14,21,15.00
2009,10,14,14,22,15.00
2009,10,14,14,23,15.00
2009,10,14,14,24,15.00
2009,10,14,14,25,15.00
2009,10,14,14,26,15.00
2009,10,14,14,27,15.00
2009,10,14,14,28,15.00
2009,10,14,14,29,15.00
2009,10,14,14,30,15.00
2009,10,14,14,31,15.00
2009,10,14,14,32,15.00
2009,10,14,14,33,15.00
2009,10,14,14,34,15.00
2009,10,14,14,35,15.00
2009,10,14,14,36,15.00
2009,10,14,14,37,15.00
2009,10,14,14,38,15.00
2009,10,14,14,39,15.00
2009,10,14,14,40,15.00
2009,10,14,14,41,15.00
2009,10,14,14,42,15.00
2009,10,14,14,43,15.00
2009,10,14,14,44,15.00
2009,10,14,14,45,15.00
2009,10,14,14,46,14.90
2009,10,14,14,47,14.80
2009,10,14,14,48,14.80
2009,10,14,14,49,14.70
2009,10,14,14,50,14.70
2009,10,14,14,51,14.60
2009,10,14,14,52,14.60
2009,10,14,14,53,14.60
2009,10,14,14,54,14.60
2009,10,14,14,55,14.60
2009,10,14,14,56,14.60
2009,10,14,14,57,14.60
2009,10,14,14,58,14.60
2009,10,14,14,59,14.60
2009,10,14,15,00,14.60
2009,10,14,15,01,14.60
2009,10,14,15,02,14.60
2009,10,14,15,03,14.70
2009,10,14,15,04,14.70
2009,10,14,15,05,14.70
2009,10,14,15,06,14.80
2009,10,14,15,07,14.80
2009,10,14,15,08,14.80
2009,10,14,15,09,14.80
2009,10,14,15,10,14.80
2009,10,14,15,11,14.80
2009,10,14,15,12,14.80
2009,10,14,15,13,14.80
2009,10,14,15,14,14.80
2009,10,14,15,15,14.80
2009,10,14,15,16,14.80
2009,10,14,15,17,14.80
2009,10,14,15,18,14.80
2009,10,14,15,19,14.80
2009,10,14,15,20,14.80
2009,10,14,15,21,14.80
2009,10,14,15,22,14.70
2009,10,14,15,23,14.70
2009,10,14,15,24,14.70
2009,10,14,15,25,14.70
2009,10,14,15,26,14.70
2009,10,14,15,27,14.70
2009,10,14,15,28,14.70
2009,10,14,15,29,14.70
2009,10,14,15,30,14.70
2009,10,14,15,31,14.70
2009,10,14,15,32,14.70
2009,10,14,15,33,14.70
2009,10,14,15,34,14.70
2009,10,14,15,35,14.70
2009,10,14,15,36,14.70
2009,10,14,15,37,14.70
2009,10,14,15,38,14.70
2009,10,14,15,39,14.60
2009,10,14,15,40,14.60
2009,10,14,15,41,14.60
2009,10,14,15,42,14.60
2009,10,14,15,43,14.60
2009,10,14,15,44,14.60
2009,10,14,15,45,14.60
2009,10,14,15,46,14.60
2009,10,14,15,47,14.60
2009,10,14,15,48,14.60
2009,10,14,15,49,14.60
2009,10,14,15,50,14.60
2009,10,14,15,51,14.60
2009,10,14,15,52,14.60
2009,10,14,15,53,14.60
2009,10,14,15,54,14.60
2009,10,14,15,55,14.60
2009,10,14,15,56,14.60
2009,10,14,15,57,14.60
2009,10,14,15,58,14.60
